Météo par heure à Kita

Ce jour, 5 Mars, Vendredi

Heure Température Précipitation Vent Pression Humidité
00:00 +30°C° 0 mm 3 m/s 725 mmHg 14%
01:00 +29°C° 0 mm 3 m/s 725 mmHg 15%
02:00 +28°C° 0 mm 3 m/s 725 mmHg 15%
03:00 +27°C° 0 mm 2 m/s 724 mmHg 16%
04:00 +26°C° 0 mm 2 m/s 724 mmHg 16%
05:00 +25°C° 0 mm 2 m/s 724 mmHg 17%
06:00 +27°C° 0 mm 3 m/s 725 mmHg 15%
07:00 +29°C° 0 mm 3 m/s 726 mmHg 13%
08:00 +32°C° 0 mm 4 m/s 727 mmHg 11%
09:00 +35°C° 0 mm 4 m/s 727 mmHg 10%
10:00 +38°C° 0 mm 3 m/s 727 mmHg 9%
11:00 +42°C° 0 mm 3 m/s 727 mmHg 8%
12:00 +43°C° 0 mm 3 m/s 726 mmHg 8%
13:00 +43°C° 0 mm 2 m/s 725 mmHg 8%
14:00 +45°C° 0 mm 2 m/s 724 mmHg 7%
15:00 +43°C° 0 mm 2 m/s 724 mmHg 8%
16:00 +42°C° 0 mm 2 m/s 724 mmHg 8%
17:00 +41°C° 0 mm 1 m/s 723 mmHg 9%
18:00 +39°C° 0 mm 1 m/s 724 mmHg 11%
19:00 +35°C° 0 mm 1 m/s 724 mmHg 13%
20:00 +32°C° 0 mm 1 m/s 725 mmHg 15%
21:00 +31°C° 0 mm 1 m/s 725 mmHg 15%
22:00 +30°C° 0 mm 1 m/s 725 mmHg 16%
23:00 +27°C° 0 mm 0 m/s 725 mmHg 17%

Demain, 6 Mars, Samedi

Heure Température Précipitation Vent Pression Humidité
00:00 +26°C° 0 mm 0 m/s 725 mmHg 18%
01:00 +28°C° 0 mm 1 m/s 724 mmHg 18%
02:00 +27°C° 0 mm 1 m/s 724 mmHg 19%
03:00 +26°C° 0 mm 1 m/s 724 mmHg 20%
04:00 +26°C° 0 mm 1 m/s 725 mmHg 21%
05:00 +25°C° 0 mm 1 m/s 725 mmHg 22%
06:00 +27°C° 0 mm 1 m/s 726 mmHg 21%
07:00 +29°C° 0 mm 2 m/s 727 mmHg 19%
08:00 +31°C° 0 mm 2 m/s 727 mmHg 17%
09:00 +35°C° 0 mm 2 m/s 727 mmHg 16%
10:00 +37°C° 0 mm 2 m/s 727 mmHg 15%
11:00 +40°C° 0 mm 2 m/s 727 mmHg 14%
12:00 +41°C° 0 mm 2 m/s 726 mmHg 13%
13:00 +42°C° 0 mm 2 m/s 726 mmHg 13%
14:00 +43°C° 0 mm 2 m/s 725 mmHg 12%
15:00 +42°C° 0 mm 1 m/s 725 mmHg 13%
16:00 +42°C° 0 mm 1 m/s 724 mmHg 13%
17:00 +41°C° 0 mm 1 m/s 724 mmHg 14%
18:00 +37°C° 0 mm 1 m/s 725 mmHg 16%
19:00 +33°C° 0 mm 0 m/s 726 mmHg 18%
20:00 +31°C° 0 mm 0 m/s 726 mmHg 20%
21:00 +32°C° 0 mm 1 m/s 726 mmHg 27%
22:00 +31°C° 0 mm 2 m/s 727 mmHg 35%
23:00 +31°C° 0 mm 3 m/s 727 mmHg 42%

Après-demain, 7 Mars, Dimanche

Heure Température Précipitation Vent Pression Humidité
00:00 +30°C° 0 mm 3 m/s 727 mmHg 46%
01:00 +29°C° 0 mm 3 m/s 726 mmHg 50%
02:00 +29°C° 0 mm 3 m/s 726 mmHg 53%
03:00 +28°C° 0 mm 3 m/s 726 mmHg 55%
04:00 +28°C° 0 mm 3 m/s 726 mmHg 56%
05:00 +28°C° 0 mm 2 m/s 726 mmHg 58%
06:00 +29°C° 0 mm 3 m/s 727 mmHg 51%
07:00 +30°C° 0 mm 3 m/s 728 mmHg 45%
08:00 +33°C° 0 mm 4 m/s 728 mmHg 39%
09:00 +35°C° 0 mm 3 m/s 728 mmHg 31%
10:00 +38°C° 0 mm 3 m/s 728 mmHg 24%
11:00 +40°C° 0 mm 3 m/s 728 mmHg 17%
12:00 +42°C° 0 mm 2 m/s 727 mmHg 16%
13:00 +43°C° 0 mm 2 m/s 726 mmHg 14%
14:00 +45°C° 0 mm 1 m/s 725 mmHg 13%
15:00 +43°C° 0 mm 1 m/s 725 mmHg 16%
16:00 +41°C° 0 mm 2 m/s 725 mmHg 20%
17:00 +39°C° 0 mm 2 m/s 725 mmHg 23%
18:00 +37°C° 0 mm 2 m/s 725 mmHg 28%
19:00 +34°C° 0 mm 1 m/s 725 mmHg 32%
20:00 +30°C° 0 mm 0 m/s 726 mmHg 37%
21:00 +31°C° 0 mm 1 m/s 726 mmHg 37%
22:00 +31°C° 0 mm 1 m/s 726 mmHg 38%
23:00 +31°C° 0 mm 1 m/s 726 mmHg 38%

8 Mars, Lundi

Heure Température Précipitation Vent Pression Humidité
00:00 +31°C° 0 mm 1 m/s 726 mmHg 40%
01:00 +30°C° 0 mm 1 m/s 725 mmHg 41%
02:00 +29°C° 0 mm 1 m/s 725 mmHg 43%
03:00 +29°C° 0 mm 1 m/s 725 mmHg 40%
04:00 +28°C° 0 mm 1 m/s 725 mmHg 37%
05:00 +28°C° 0 mm 1 m/s 725 mmHg 35%
06:00 +29°C° 0 mm 1 m/s 726 mmHg 30%
07:00 +30°C° 0 mm 1 m/s 726 mmHg 26%
08:00 +31°C° 0 mm 1 m/s 727 mmHg 22%
09:00 +35°C° 0 mm 1 m/s 727 mmHg 18%
10:00 +39°C° 0 mm 1 m/s 727 mmHg 15%
11:00 +42°C° 0 mm 2 m/s 727 mmHg 12%
12:00 +43°C° 0 mm 1 m/s 726 mmHg 12%
13:00 +45°C° 0 mm 1 m/s 725 mmHg 11%
14:00 +46°C° 0 mm 1 m/s 724 mmHg 11%
15:00 +45°C° 0 mm 1 m/s 724 mmHg 12%
16:00 +40°C° 0 mm 0 m/s 724 mmHg 14%
17:00 +38°C° 0 mm 0 m/s 723 mmHg 16%
18:00 +39°C° 0 mm 1 m/s 724 mmHg 18%
19:00 +37°C° 0 mm 1 m/s 724 mmHg 21%
20:00 +35°C° 0 mm 1 m/s 725 mmHg 23%
21:00 +34°C° 0 mm 1 m/s 725 mmHg 22%
22:00 +33°C° 0 mm 1 m/s 725 mmHg 20%
23:00 +34°C° 0 mm 2 m/s 725 mmHg 18%

9 Mars, Mardi

Heure Température Précipitation Vent Pression Humidité
00:00 +31°C° 0 mm 1 m/s 725 mmHg 19%
01:00 +29°C° 0 mm 1 m/s 725 mmHg 19%
02:00 +28°C° 0 mm 1 m/s 724 mmHg 20%
03:00 +27°C° 0 mm 1 m/s 724 mmHg 20%
04:00 +26°C° 0 mm 1 m/s 724 mmHg 21%
05:00 +25°C° 0 mm 1 m/s 724 mmHg 22%
06:00 +28°C° 0 mm 2 m/s 725 mmHg 19%
07:00 +30°C° 0 mm 2 m/s 726 mmHg 16%
08:00 +32°C° 0 mm 2 m/s 727 mmHg 14%
09:00 +36°C° 0 mm 2 m/s 727 mmHg 12%
10:00 +38°C° 0 mm 2 m/s 727 mmHg 10%
11:00 +42°C° 0 mm 3 m/s 726 mmHg 8%
12:00 +42°C° 0 mm 2 m/s 726 mmHg 8%
13:00 +43°C° 0 mm 2 m/s 725 mmHg 8%
14:00 +45°C° 0 mm 2 m/s 724 mmHg 7%
15:00 +43°C° 0 mm 2 m/s 724 mmHg 8%
16:00 +42°C° 0 mm 2 m/s 723 mmHg 8%
17:00 +41°C° 0 mm 2 m/s 723 mmHg 9%
18:00 +39°C° 0 mm 2 m/s 724 mmHg 11%
19:00 +36°C° 0 mm 2 m/s 724 mmHg 13%
20:00 +32°C° 0 mm 2 m/s 724 mmHg 15%
21:00 +31°C° 0 mm 2 m/s 724 mmHg 16%
22:00 +30°C° 0 mm 2 m/s 725 mmHg 16%
23:00 +29°C° 0 mm 2 m/s 725 mmHg 17%

10 Mars, Mercredi

Heure Température Précipitation Vent Pression Humidité
00:00 +28°C° 0 mm 2 m/s 725 mmHg 18%
01:00 +27°C° 0 mm 2 m/s 725 mmHg 19%
02:00 +26°C° 0 mm 1 m/s 724 mmHg 20%
03:00 +25°C° 0 mm 1 m/s 725 mmHg 21%
04:00 +24°C° 0 mm 1 m/s 725 mmHg 22%
05:00 +21°C° 0 mm 0 m/s 725 mmHg 23%
06:00 +24°C° 0 mm 0 m/s 726 mmHg 20%
07:00 +27°C° 0 mm 0 m/s 727 mmHg 17%
08:00 +30°C° 0 mm 0 m/s 727 mmHg 14%
09:00 +34°C° 0 mm 1 m/s 727 mmHg 12%
10:00 +37°C° 0 mm 1 m/s 727 mmHg 10%
11:00 +40°C° 0 mm 2 m/s 727 mmHg 8%
12:00 +41°C° 0 mm 2 m/s 726 mmHg 8%
13:00 +42°C° 0 mm 2 m/s 725 mmHg 8%
14:00 +43°C° 0 mm 2 m/s 724 mmHg 8%
15:00 +42°C° 0 mm 2 m/s 724 mmHg 8%
16:00 +42°C° 0 mm 3 m/s 724 mmHg 8%
17:00 +40°C° 0 mm 3 m/s 724 mmHg 9%
18:00 +37°C° 0 mm 2 m/s 724 mmHg 10%
19:00 +35°C° 0 mm 2 m/s 724 mmHg 12%
20:00 +31°C° 0 mm 2 m/s 725 mmHg 14%
21:00 +30°C° 0 mm 2 m/s 725 mmHg 15%
22:00 +29°C° 0 mm 2 m/s 725 mmHg 16%
23:00 +28°C° 0 mm 2 m/s 725 mmHg 17%
Voir plus

Nous avons besoin de votre consentement

Meteoprog et ses fournisseurs de services peuvent stocker et accéder à des données personnelles telles que des cookies, des identifiants d'appareils ou d'autres technologies similaires sur votre appareil et traiter ces données pour personnaliser le contenu et les publicités, ainsi que pour fournir des fonctionnalités de médias sociaux et analyser le trafic.

  • Stocker et/ou accéder à des informations sur votre appareil

    Des cookies, des identifiants d'appareils ou d'autres informations peuvent être stockés ou accessibles sur votre appareil aux fins indiquées ci-dessus.

  • Annonces et contenus personnalisés, mesure des annonces et des contenus, connaissance de l'audience et développement de produits

    Les annonces et le contenu peuvent être personnalisés en fonction d'un profil. D'autres données peuvent être ajoutées pour mieux personnaliser les annonces et le contenu. Les performances des publicités et du contenu peuvent être mesurées. Il est possible d'obtenir des informations sur le public qui a vu les publicités et le contenu. Ces données peuvent être utilisées pour développer ou améliorer l'expérience de l'utilisateur, les systèmes et les logiciels.

En cliquant sur "J'accepte", vous autorisez l'utilisation de cookies, des identifiants d'appareils, des balises web ou d'autres technologies similaires. Vos paramètres peuvent être modifiés dans le navigateur de votre appareil.

Dans certains cas, des intérêts légitimes peuvent être invoqués plutôt qu'un consentement. Vous pouvez en savoir plus à ce sujet dans notre Politique de confidentialité et de cookies.